date,City,No. Stations,Air Quality,Index Value,Prominent Pollutant
2021-01-04,Bidar,1.0,Moderate,138,PM2.5
2021-01-05,Bidar,1.0,Satisfactory,66,PM2.5
2021-01-06,Bidar,1.0,Satisfactory,58,PM2.5
2021-01-07,Bidar,1.0,Satisfactory,54,PM2.5
2021-01-08,Bidar,1.0,Moderate,122,PM2.5
2021-01-09,Bidar,1.0,Good,50,PM2.5
2021-01-10,Bidar,1.0,Good,41,PM2.5
2021-01-11,Bidar,1.0,Satisfactory,63,PM2.5
2021-01-12,Bidar,1.0,Satisfactory,67,PM2.5
2021-01-13,Bidar,1.0,Satisfactory,90,PM2.5
2021-01-14,Bidar,1.0,Satisfactory,81,PM2.5
2021-01-15,Bidar,1.0,Moderate,101,PM2.5
2021-01-16,Bidar,1.0,Moderate,113,PM2.5
2021-01-17,Bidar,1.0,Satisfactory,100,PM2.5
2021-01-18,Bidar,1.0,Satisfactory,79,PM2.5
2021-01-19,Bidar,1.0,Satisfactory,86,PM2.5
2021-01-20,Bidar,1.0,Satisfactory,74,PM2.5
2021-01-21,Bidar,1.0,Moderate,102,PM2.5
2021-01-22,Bidar,1.0,Satisfactory,90,PM2.5
2021-01-23,Bidar,1.0,Moderate,107,PM10
2021-01-24,Bidar,1.0,Moderate,106,PM10
2021-01-25,Bidar,1.0,Moderate,113,PM10
2021-01-26,Bidar,1.0,Satisfactory,93,PM10
2021-01-27,Bidar,1.0,Moderate,101,PM10
2021-01-28,Bidar,1.0,Satisfactory,99,PM10
2021-02-12,Bidar,1.0,Satisfactory,92,PM10
2021-02-16,Bidar,1.0,Moderate,104,PM10
2021-02-17,Bidar,1.0,Satisfactory,100,PM10
2021-02-18,Bidar,1.0,Satisfactory,98,PM10
2021-02-19,Bidar,1.0,Satisfactory,91,PM10
2021-02-20,Bidar,1.0,Satisfactory,75,PM10
2021-02-21,Bidar,1.0,Satisfactory,74,PM10
2021-02-22,Bidar,1.0,Satisfactory,91,PM10
2021-02-23,Bidar,1.0,Moderate,108,PM10
2021-02-24,Bidar,1.0,Moderate,101,PM10
2021-02-27,Bidar,1.0,Moderate,105,PM10
2021-03-02,Bidar,1.0,Moderate,116,PM10
2021-03-03,Bidar,1.0,Satisfactory,96,PM10
2021-03-04,Bidar,1.0,Satisfactory,90,PM10
2021-03-05,Bidar,1.0,Moderate,101,PM10
2021-03-06,Bidar,1.0,Satisfactory,97,PM10
2021-03-07,Bidar,1.0,Moderate,105,PM10
2021-03-09,Bidar,1.0,Satisfactory,96,PM10
2021-03-10,Bidar,1.0,Satisfactory,85,PM10
2021-03-12,Bidar,1.0,Satisfactory,61,PM10
2021-03-14,Bidar,1.0,Satisfactory,54,PM10
2021-03-15,Bidar,1.0,Satisfactory,70,PM10
2021-03-16,Bidar,1.0,Satisfactory,84,PM10
2021-03-17,Bidar,1.0,Moderate,108,PM2.5
2021-03-18,Bidar,1.0,Moderate,114,PM2.5
2021-03-19,Bidar,1.0,Moderate,112,PM10
2021-03-20,Bidar,1.0,Moderate,106,PM10
2021-03-26,Bidar,1.0,Moderate,116,PM10
2021-03-27,Bidar,1.0,Moderate,133,PM10
2021-03-28,Bidar,1.0,Moderate,123,PM10
2021-03-29,Bidar,1.0,Moderate,142,PM2.5
2021-03-30,Bidar,1.0,Moderate,111,PM10
2021-03-31,Bidar,1.0,Moderate,102,PM10
2021-04-02,Bidar,1.0,Moderate,157,PM10
2021-04-03,Bidar,1.0,Moderate,149,PM10
2021-04-04,Bidar,1.0,Moderate,158,PM10
2021-04-06,Bidar,1.0,Moderate,119,PM10
2021-04-07,Bidar,1.0,Moderate,110,PM10
2021-04-08,Bidar,1.0,Moderate,116,PM10
2021-04-09,Bidar,1.0,Moderate,141,PM10
2021-04-10,Bidar,1.0,Moderate,117,PM10
2021-05-14,Bidar,1.0,Satisfactory,54,PM10
2021-05-18,Bidar,1.0,Good,41,PM10
2021-05-21,Bidar,1.0,Moderate,118,PM10
2021-05-23,Bidar,1.0,Satisfactory,98,PM10
2021-05-24,Bidar,1.0,Moderate,113,PM10
2021-05-25,Bidar,1.0,Moderate,103,PM10
2021-05-26,Bidar,1.0,Moderate,112,PM10
2021-05-27,Bidar,1.0,Satisfactory,79,PM10
2021-05-28,Bidar,1.0,Good,41,PM10
2021-06-01,Bidar,1.0,Good,30,PM10
2021-06-06,Bidar,1.0,Good,29,SO2
2021-06-07,Bidar,1.0,Good,26,PM10
2021-06-08,Bidar,1.0,Satisfactory,53,PM10
2021-06-12,Bidar,1.0,Good,24,SO2
2021-06-13,Bidar,1.0,Good,30,SO2
2021-06-15,Bidar,1.0,Good,26,SO2
2021-06-17,Bidar,1.0,Good,25,SO2
2021-06-18,Bidar,1.0,Satisfactory,59,PM10
2021-06-19,Bidar,1.0,Good,42,PM10
2021-06-22,Bidar,1.0,Moderate,102,PM10
2021-06-23,Bidar,1.0,Satisfactory,92,PM10
2021-06-26,Bidar,1.0,Good,39,PM10
2021-06-30,Bidar,1.0,Good,36,CO
2021-07-01,Bidar,1.0,Good,33,CO
2021-07-03,Bidar,1.0,Good,44,PM10
2021-07-04,Bidar,1.0,Satisfactory,60,PM10
2021-07-06,Bidar,1.0,Satisfactory,54,PM10
2021-07-11,Bidar,1.0,Good,47,CO
2021-07-13,Bidar,1.0,Good,47,CO
2021-07-14,Bidar,1.0,Good,48,CO
2021-07-15,Bidar,1.0,Satisfactory,58,CO
2021-07-16,Bidar,1.0,Satisfactory,53,CO
2021-07-17,Bidar,1.0,Good,48,CO
2021-07-29,Bidar,1.0,Good,42,CO
2021-08-03,Bidar,1.0,Good,30,PM10
2021-08-04,Bidar,1.0,Good,34,PM10
2021-08-06,Bidar,1.0,Good,45,CO
2021-08-07,Bidar,1.0,Moderate,101,SO2
2021-08-08,Bidar,1.0,Moderate,111,SO2
2021-08-09,Bidar,1.0,Satisfactory,98,SO2
2021-08-10,Bidar,1.0,Satisfactory,94,SO2
2021-08-11,Bidar,1.0,Satisfactory,86,SO2
2021-08-12,Bidar,1.0,Satisfactory,75,SO2
2021-08-14,Bidar,1.0,Satisfactory,67,SO2
2021-08-15,Bidar,1.0,Satisfactory,63,SO2
2021-08-16,Bidar,1.0,Satisfactory,57,SO2
2021-08-17,Bidar,1.0,Satisfactory,64,SO2
2021-08-21,Bidar,1.0,Satisfactory,60,SO2
2021-08-27,Bidar,1.0,Satisfactory,52,SO2
2021-08-31,Bidar,1.0,Good,48,CO
2021-09-01,Bidar,1.0,Good,49,SO2
2021-09-02,Bidar,1.0,Good,47,SO2
2021-09-03,Bidar,1.0,Good,49,SO2
2021-09-04,Bidar,1.0,Good,49,CO
2021-09-07,Bidar,1.0,Good,47,SO2
2021-09-08,Bidar,1.0,Good,46,SO2
2021-09-09,Bidar,1.0,Good,50,SO2
2021-09-10,Bidar,1.0,Good,46,SO2
2021-09-11,Bidar,1.0,Good,48,SO2
2021-09-12,Bidar,1.0,Good,44,SO2
2021-09-14,Bidar,1.0,Good,44,CO
2021-09-16,Bidar,1.0,Satisfactory,77,PM10
2021-09-17,Bidar,1.0,Satisfactory,83,PM10
2021-09-21,Bidar,1.0,Good,42,CO
2021-09-22,Bidar,1.0,Good,44,CO
2021-10-01,Bidar,1.0,Good,43,PM10
2021-10-02,Bidar,1.0,Good,48,CO
2021-10-06,Bidar,1.0,Good,42,CO
2021-10-08,Bidar,1.0,Good,50,CO
2021-10-09,Bidar,1.0,Good,40,SO2
2021-10-12,Bidar,1.0,Satisfactory,97,PM10
2021-10-13,Bidar,1.0,Satisfactory,98,PM10
2021-10-14,Bidar,1.0,Moderate,113,PM10
2021-10-15,Bidar,1.0,Moderate,114,PM10
2021-10-16,Bidar,1.0,Satisfactory,94,PM10
2021-10-17,Bidar,1.0,Good,46,CO
2021-10-28,Bidar,1.0,Satisfactory,99,PM10
2021-10-29,Bidar,1.0,Satisfactory,85,PM10
2021-11-03,Bidar,1.0,Good,46,CO
2021-11-07,Bidar,1.0,Satisfactory,73,PM10
2021-11-08,Bidar,1.0,Satisfactory,82,PM10
2021-11-10,Bidar,1.0,Moderate,131,PM10
2021-11-11,Bidar,1.0,Moderate,136,PM10
2021-11-12,Bidar,1.0,Moderate,154,PM10
2021-11-16,Bidar,1.0,Good,41,CO
2021-11-17,Bidar,1.0,Good,42,CO
2021-11-18,Bidar,1.0,Satisfactory,51,CO
2021-11-19,Bidar,1.0,Good,50,CO
2021-11-24,Bidar,1.0,Satisfactory,53,PM10
2021-11-25,Bidar,1.0,Satisfactory,66,PM10
2021-12-02,Bidar,1.0,Moderate,105,PM10
2021-12-04,Bidar,1.0,Moderate,138,PM10
2021-12-05,Bidar,1.0,Moderate,117,PM10
2021-12-06,Bidar,1.0,Satisfactory,85,PM10
2021-12-07,Bidar,1.0,Satisfactory,84,PM10
2021-12-08,Bidar,1.0,Moderate,147,PM10
2021-12-10,Bidar,1.0,Satisfactory,78,PM10
2021-12-11,Bidar,1.0,Poor,206,O3
2021-12-12,Bidar,1.0,Satisfactory,99,PM10
2021-12-13,Bidar,1.0,Poor,246,O3
2021-12-14,Bidar,1.0,Moderate,107,PM10
2021-12-15,Bidar,1.0,Moderate,114,PM10
2021-12-16,Bidar,1.0,Moderate,120,PM10
2021-12-18,Bidar,1.0,Moderate,104,PM10
2021-12-21,Bidar,1.0,Moderate,103,PM10
2021-12-22,Bidar,1.0,Moderate,114,PM10
2021-12-23,Bidar,1.0,Satisfactory,98,PM10
2021-12-24,Bidar,1.0,Moderate,134,PM10
2021-12-28,Bidar,1.0,Moderate,108,PM10
2021-12-29,Bidar,1.0,Satisfactory,87,PM10
2021-12-30,Bidar,1.0,Moderate,102,PM10
2021-12-31,Bidar,1.0,Satisfactory,70,PM10
2022-01-01,Bidar,1.0,Satisfactory,64,PM10
2022-01-02,Bidar,1.0,Satisfactory,73,PM10
2022-01-04,Bidar,1.0,Satisfactory,97,PM10
2022-01-05,Bidar,1.0,Satisfactory,94,PM10
2022-01-06,Bidar,1.0,Satisfactory,86,PM10
2022-01-09,Bidar,1.0,Satisfactory,63,PM10
2022-01-10,Bidar,1.0,Satisfactory,69,PM10
2022-01-19,Bidar,1.0,Satisfactory,95,PM10
2022-01-21,Bidar,1.0,Satisfactory,98,PM10
2022-01-22,Bidar,1.0,Satisfactory,78,PM10
2022-01-23,Bidar,1.0,Satisfactory,77,PM10
2022-01-25,Bidar,1.0,Severe,437,PM10
2022-01-26,Bidar,1.0,Poor,270,PM10
2022-01-27,Bidar,1.0,Moderate,195,PM10
2022-01-28,Bidar,1.0,Moderate,110,PM10
2022-01-29,Bidar,1.0,Satisfactory,82,PM10
2022-01-30,Bidar,1.0,Satisfactory,88,PM10
2022-02-01,Bidar,1.0,Moderate,111,PM10
2022-02-02,Bidar,1.0,Moderate,104,PM10
2022-02-03,Bidar,1.0,Moderate,108,PM10
2022-02-05,Bidar,1.0,Moderate,159,PM10
2022-02-06,Bidar,1.0,Moderate,125,PM10
2022-02-07,Bidar,1.0,Moderate,115,PM10
2022-02-08,Bidar,1.0,Moderate,111,PM10
2022-02-09,Bidar,1.0,Moderate,102,PM10
2022-02-10,Bidar,1.0,Moderate,101,PM10
2022-02-11,Bidar,1.0,Moderate,119,PM10
2022-02-12,Bidar,1.0,Satisfactory,100,PM10
2022-02-14,Bidar,1.0,Satisfactory,98,PM10
2022-02-15,Bidar,1.0,Satisfactory,95,PM10
2022-02-16,Bidar,1.0,Satisfactory,91,PM10
2022-02-17,Bidar,1.0,Satisfactory,92,PM10
2022-02-20,Bidar,1.0,Moderate,106,PM10
2022-02-21,Bidar,1.0,Moderate,125,PM10
2022-02-22,Bidar,1.0,Satisfactory,87,PM10
2022-02-23,Bidar,1.0,Satisfactory,93,PM10
2022-02-24,Bidar,1.0,Satisfactory,81,PM10
2022-02-25,Bidar,1.0,Satisfactory,69,PM10
2022-02-27,Bidar,1.0,Satisfactory,66,PM10
2022-03-01,Bidar,1.0,Satisfactory,64,PM10
2022-03-02,Bidar,1.0,Satisfactory,54,PM10
2022-03-07,Bidar,1.0,Satisfactory,76,PM10
2022-03-09,Bidar,1.0,Satisfactory,93,PM10
2022-03-15,Bidar,1.0,Moderate,104,PM10
2022-03-17,Bidar,1.0,Moderate,107,PM10
2022-03-22,Bidar,1.0,Moderate,115,PM10
2022-03-23,Bidar,1.0,Moderate,104,PM10
2022-03-25,Bidar,1.0,Moderate,124,PM10
2022-03-26,Bidar,1.0,Moderate,108,PM10
2022-03-29,Bidar,1.0,Moderate,167,PM10
2022-03-30,Bidar,1.0,Moderate,109,PM10
2022-03-31,Bidar,1.0,Moderate,137,PM10
2022-04-03,Bidar,1.0,Satisfactory,96,PM10
2022-04-05,Bidar,1.0,Satisfactory,100,PM10
2022-04-06,Bidar,1.0,Satisfactory,86,PM10
2022-04-07,Bidar,1.0,Satisfactory,94,PM10
2022-04-09,Bidar,1.0,Satisfactory,92,PM10
2022-04-10,Bidar,1.0,Satisfactory,78,PM10
2022-04-11,Bidar,1.0,Satisfactory,86,PM10
2022-04-12,Bidar,1.0,Satisfactory,86,PM10
2022-04-13,Bidar,1.0,Satisfactory,84,PM10
2022-04-14,Bidar,1.0,Satisfactory,78,PM10
2022-04-18,Bidar,1.0,Moderate,102,PM10
2022-04-19,Bidar,1.0,Satisfactory,92,PM10
2022-04-20,Bidar,1.0,Moderate,105,PM10
2022-04-21,Bidar,1.0,Moderate,121,PM10
2022-04-26,Bidar,1.0,Satisfactory,81,PM10
2022-04-27,Bidar,1.0,Satisfactory,91,PM10
2022-04-28,Bidar,1.0,Satisfactory,96,PM10
2022-04-30,Bidar,1.0,Moderate,106,PM10
2022-05-01,Bidar,1.0,Moderate,143,PM10
2022-05-02,Bidar,1.0,Moderate,111,PM10
2022-05-07,Bidar,1.0,Moderate,150,PM10
2022-05-12,Bidar,1.0,Satisfactory,93,PM10
2022-05-22,Bidar,1.0,Moderate,108,PM10
2022-05-24,Bidar,1.0,Satisfactory,70,PM10
2022-05-25,Bidar,1.0,Satisfactory,95,PM10
2022-05-28,Bidar,1.0,Satisfactory,83,PM10
2022-05-29,Bidar,1.0,Satisfactory,89,PM10
2022-06-02,Bidar,1.0,Satisfactory,86,PM10
2022-10-12,Bidar,1.0,Satisfactory,89,CO
2022-10-13,Bidar,1.0,Satisfactory,58,CO
2022-10-22,Bidar,1.0,Satisfactory,57,CO
2022-10-23,Bidar,1.0,Satisfactory,57,CO
2022-10-24,Bidar,1.0,Satisfactory,58,CO
2022-10-25,Bidar,1.0,Satisfactory,58,CO
2022-10-26,Bidar,1.0,Satisfactory,58,CO
2022-10-27,Bidar,1.0,Satisfactory,58,CO
2022-10-28,Bidar,1.0,Satisfactory,58,CO
2022-10-29,Bidar,1.0,Satisfactory,58,CO
2022-10-30,Bidar,1.0,Satisfactory,58,CO
2022-11-03,Bidar,1.0,Satisfactory,77,CO
2022-11-04,Bidar,1.0,Satisfactory,69,CO
2022-11-05,Bidar,1.0,Moderate,145,CO
2022-11-06,Bidar,1.0,Moderate,145,CO
2022-11-08,Bidar,1.0,Satisfactory,71,CO
2022-11-09,Bidar,1.0,Satisfactory,68,CO
2022-11-10,Bidar,1.0,Satisfactory,75,CO
2022-11-11,Bidar,1.0,Satisfactory,75,CO
2022-11-12,Bidar,1.0,Satisfactory,79,CO
2022-11-15,Bidar,1.0,Satisfactory,80,CO
2022-11-16,Bidar,1.0,Satisfactory,73,O3
2022-11-17,Bidar,1.0,Satisfactory,93,PM10
2022-11-18,Bidar,1.0,Satisfactory,87,PM10
2022-11-19,Bidar,1.0,Satisfactory,81,PM10
2022-11-29,Bidar,1.0,Satisfactory,73,SO2
2022-12-01,Bidar,1.0,Satisfactory,80,SO2
2022-12-02,Bidar,1.0,Satisfactory,66,PM10
2022-12-03,Bidar,1.0,Satisfactory,71,CO
2022-12-06,Bidar,1.0,Satisfactory,89,SO2
2022-12-07,Bidar,1.0,Satisfactory,89,SO2
2022-12-08,Bidar,1.0,Satisfactory,76,SO2
2022-12-14,Bidar,1.0,Satisfactory,72,SO2
2022-12-15,Bidar,1.0,Satisfactory,72,SO2
2022-12-16,Bidar,1.0,Satisfactory,77,SO2
2022-12-17,Bidar,1.0,Satisfactory,81,SO2
2022-12-18,Bidar,1.0,Satisfactory,84,SO2
2022-12-19,Bidar,1.0,Satisfactory,87,SO2
2022-12-20,Bidar,1.0,Satisfactory,97,PM10
2022-12-21,Bidar,1.0,Satisfactory,99,PM10
2022-12-22,Bidar,1.0,Satisfactory,95,PM10
2022-12-23,Bidar,1.0,Satisfactory,78,SO2
2022-12-24,Bidar,1.0,Satisfactory,76,SO2
2022-12-25,Bidar,1.0,Satisfactory,78,PM10
2022-12-26,Bidar,1.0,Satisfactory,68,SO2
2022-12-27,Bidar,1.0,Satisfactory,68,SO2
2022-12-28,Bidar,1.0,Satisfactory,70,SO2
2022-12-29,Bidar,1.0,Satisfactory,69,SO2
2023-01-01,Bidar,1.0,Satisfactory,83,CO
2023-01-02,Bidar,1.0,Satisfactory,83,CO
2023-01-03,Bidar,1.0,Satisfactory,86,CO
2023-01-04,Bidar,1.0,Satisfactory,85,CO
2023-01-05,Bidar,1.0,Satisfactory,90,CO
2023-01-06,Bidar,1.0,Satisfactory,100,CO
2023-01-07,Bidar,1.0,Satisfactory,97,CO
2023-01-08,Bidar,1.0,Satisfactory,80,CO
2023-01-09,Bidar,1.0,Satisfactory,88,PM10
2023-01-10,Bidar,1.0,Satisfactory,100,PM10
2023-01-11,Bidar,1.0,Moderate,106,PM10
2023-01-12,Bidar,1.0,Moderate,110,PM10
2023-01-13,Bidar,1.0,Moderate,153,PM10
2023-01-14,Bidar,1.0,Satisfactory,82,PM10
2023-01-15,Bidar,1.0,Satisfactory,83,PM10
2023-01-16,Bidar,1.0,Satisfactory,81,CO
2023-01-17,Bidar,1.0,Satisfactory,80,CO
2023-01-18,Bidar,1.0,Satisfactory,80,CO
2023-01-19,Bidar,1.0,Satisfactory,81,CO
2023-01-20,Bidar,1.0,Satisfactory,81,CO
2023-01-21,Bidar,1.0,Satisfactory,81,CO
2023-01-22,Bidar,1.0,Satisfactory,80,CO
2023-01-23,Bidar,1.0,Satisfactory,82,CO
2023-01-24,Bidar,1.0,Satisfactory,80,CO
2023-01-25,Bidar,1.0,Satisfactory,80,CO
2023-01-26,Bidar,1.0,Satisfactory,79,CO
2023-01-27,Bidar,1.0,Satisfactory,79,CO
2023-01-28,Bidar,1.0,Satisfactory,80,CO
2023-01-31,Bidar,1.0,Satisfactory,81,CO
2023-02-01,Bidar,1.0,Satisfactory,81,PM10
2023-02-02,Bidar,1.0,Satisfactory,90,PM10
2023-02-09,Bidar,1.0,Satisfactory,93,PM10
2023-02-10,Bidar,1.0,Satisfactory,78,CO
2023-02-11,Bidar,1.0,Satisfactory,78,CO
2023-02-12,Bidar,1.0,Moderate,130,PM10
2023-02-13,Bidar,1.0,Moderate,110,PM10
2023-02-14,Bidar,1.0,Satisfactory,86,PM10
2023-02-15,Bidar,1.0,Satisfactory,87,PM10
2023-02-16,Bidar,1.0,Satisfactory,98,PM10
2023-02-17,Bidar,1.0,Moderate,119,PM10
2023-02-18,Bidar,1.0,Moderate,125,PM10
2023-02-19,Bidar,1.0,Satisfactory,89,PM10
2023-02-20,Bidar,1.0,Satisfactory,84,PM10
2023-02-21,Bidar,1.0,Satisfactory,86,PM10
2023-03-03,Bidar,1.0,Satisfactory,79,PM10
2023-03-04,Bidar,1.0,Satisfactory,84,PM10
2023-03-05,Bidar,1.0,Satisfactory,80,PM10
2023-03-06,Bidar,1.0,Satisfactory,90,PM10
2023-03-07,Bidar,1.0,Satisfactory,75,PM10
2023-03-08,Bidar,1.0,Good,39,PM10
2023-03-10,Bidar,1.0,Satisfactory,59,PM10
2023-03-11,Bidar,1.0,Satisfactory,63,PM10
2023-03-12,Bidar,1.0,Satisfactory,74,PM10
2023-03-14,Bidar,1.0,Satisfactory,68,PM10
2023-03-15,Bidar,1.0,Satisfactory,76,PM10
2023-03-16,Bidar,1.0,Moderate,112,CO
2023-03-17,Bidar,1.0,Moderate,104,CO
2023-03-18,Bidar,1.0,Moderate,102,CO
2023-03-19,Bidar,1.0,Moderate,103,CO
2023-03-20,Bidar,1.0,Moderate,101,CO
2023-03-21,Bidar,1.0,Satisfactory,99,CO
2023-03-22,Bidar,1.0,Moderate,104,CO
2023-03-23,Bidar,1.0,Moderate,105,CO
2023-03-24,Bidar,1.0,Moderate,106,CO
2023-03-25,Bidar,1.0,Moderate,108,CO
2023-03-26,Bidar,1.0,Moderate,105,CO
2023-03-27,Bidar,1.0,Moderate,105,CO
2023-03-28,Bidar,1.0,Moderate,105,CO
2023-03-29,Bidar,1.0,Moderate,107,CO
2023-03-30,Bidar,1.0,Moderate,107,CO
2023-03-31,Bidar,1.0,Moderate,106,CO
2023-04-01,Bidar,1.0,Moderate,105,CO
2023-04-12,Bidar,1.0,Satisfactory,66,PM10
2023-04-13,Bidar,1.0,Satisfactory,72,PM10
2023-04-20,Bidar,1.0,Satisfactory,58,PM10
2023-04-21,Bidar,1.0,Satisfactory,51,PM10
2023-04-22,Bidar,1.0,Good,39,PM10
2023-04-23,Bidar,1.0,Good,41,PM10
2023-04-24,Bidar,1.0,Good,47,PM10
2023-04-26,Bidar,1.0,Good,26,PM10
2023-05-19,Bidar,1.0,Good,37,NH3
2023-05-20,Bidar,1.0,Good,36,NH3
2023-05-21,Bidar,1.0,Good,34,NH3
2023-05-22,Bidar,1.0,Good,30,NH3
2023-05-23,Bidar,1.0,Good,38,NH3
2023-05-24,Bidar,1.0,Good,41,NH3
2023-05-28,Bidar,1.0,Good,35,NH3
2023-05-29,Bidar,1.0,Good,40,NH3
2023-05-30,Bidar,1.0,Satisfactory,52,NH3
2023-05-31,Bidar,1.0,Good,47,NH3
2023-06-02,Bidar,1.0,Satisfactory,54,NH3
2023-06-03,Bidar,1.0,Satisfactory,55,NH3
2023-06-06,Bidar,1.0,Good,40,NH3
2023-06-07,Bidar,1.0,Good,48,NH3
2023-06-09,Bidar,1.0,Good,42,NH3
2023-06-10,Bidar,1.0,Good,45,NH3
2023-06-13,Bidar,1.0,Good,50,NH3
2023-06-14,Bidar,1.0,Good,48,NH3
2023-06-15,Bidar,1.0,Good,48,NH3
2023-06-16,Bidar,1.0,Good,49,NH3
2023-06-17,Bidar,1.0,Satisfactory,51,NH3
2023-06-18,Bidar,1.0,Satisfactory,55,NH3
2023-06-19,Bidar,1.0,Satisfactory,54,NH3
2023-06-20,Bidar,1.0,Satisfactory,56,NH3
2023-06-21,Bidar,1.0,Satisfactory,62,NH3
2023-06-23,Bidar,1.0,Satisfactory,55,NH3
2023-06-26,Bidar,1.0,Good,43,NH3
2023-06-27,Bidar,1.0,Good,41,NH3
2023-07-01,Bidar,1.0,Good,41,NH3
2023-07-04,Bidar,1.0,Good,39,NH3
2023-07-11,Bidar,1.0,Satisfactory,51,PM2.5
2023-07-16,Bidar,1.0,Good,23,CO
2023-07-17,Bidar,1.0,Good,27,CO
2023-07-30,Bidar,1.0,Good,26,PM10
2023-07-31,Bidar,1.0,Good,24,PM10
2023-08-02,Bidar,1.0,Good,30,NH3
2023-08-03,Bidar,1.0,Good,25,PM10
2023-08-04,Bidar,1.0,Good,42,PM10
2023-08-05,Bidar,1.0,Good,39,PM10
2023-08-06,Bidar,1.0,Good,35,PM10
2023-08-07,Bidar,1.0,Good,43,PM10
2023-08-08,Bidar,1.0,Satisfactory,56,PM10
2023-08-09,Bidar,1.0,Satisfactory,56,PM10
2023-08-11,Bidar,1.0,Good,25,PM10
2023-08-12,Bidar,1.0,Good,45,PM10
2023-08-13,Bidar,1.0,Good,33,CO
2023-08-15,Bidar,1.0,Good,22,PM10
2023-08-16,Bidar,1.0,Good,25,CO
2023-08-17,Bidar,1.0,Good,30,PM10
2023-08-18,Bidar,1.0,Good,28,PM10
2023-08-19,Bidar,1.0,Good,23,CO
2023-08-20,Bidar,1.0,Good,25,CO
2023-08-21,Bidar,1.0,Good,23,CO
2023-08-23,Bidar,1.0,Good,27,CO
2023-08-24,Bidar,1.0,Good,27,CO
2023-08-25,Bidar,1.0,Good,27,CO
2023-08-26,Bidar,1.0,Good,26,CO
2023-08-27,Bidar,1.0,Good,24,CO
2023-08-28,Bidar,1.0,Good,25,CO
2023-08-29,Bidar,1.0,Good,33,PM10
2023-08-30,Bidar,1.0,Good,49,PM10
2023-08-31,Bidar,1.0,Satisfactory,60,PM10
2023-09-01,Bidar,1.0,Satisfactory,67,PM10
2023-09-02,Bidar,1.0,Satisfactory,68,PM10
2023-09-03,Bidar,1.0,Good,36,PM10
2023-09-04,Bidar,1.0,Good,29,CO
2023-09-05,Bidar,1.0,Good,26,CO
2023-09-06,Bidar,1.0,Good,25,CO
2023-09-07,Bidar,1.0,Good,26,CO
2023-09-08,Bidar,1.0,Good,28,CO
2023-09-09,Bidar,1.0,Good,25,CO
2023-09-10,Bidar,1.0,Good,27,CO
2023-09-11,Bidar,1.0,Good,19,CO
2023-09-12,Bidar,1.0,Good,19,PM10
2023-09-13,Bidar,1.0,Good,17,CO
2023-09-14,Bidar,1.0,Good,39,PM10
2023-09-15,Bidar,1.0,Good,32,PM2.5
2023-09-22,Bidar,1.0,Good,43,CO
2023-09-23,Bidar,1.0,Good,42,CO
2023-09-24,Bidar,1.0,Good,44,CO
2023-09-25,Bidar,1.0,Good,48,CO
2023-09-26,Bidar,1.0,Satisfactory,51,CO
2023-09-27,Bidar,1.0,Satisfactory,61,CO
2023-09-28,Bidar,1.0,Satisfactory,54,CO
2023-09-30,Bidar,1.0,Good,44,CO
2023-10-01,Bidar,1.0,Good,48,CO
2023-10-02,Bidar,1.0,Satisfactory,53,CO
2023-10-03,Bidar,1.0,Satisfactory,78,PM2.5
2023-10-04,Bidar,1.0,Satisfactory,74,PM2.5
2023-10-13,Bidar,1.0,Satisfactory,75,PM2.5
2023-10-14,Bidar,1.0,Satisfactory,88,PM2.5
2023-10-15,Bidar,1.0,Satisfactory,86,PM2.5
2023-10-16,Bidar,1.0,Satisfactory,94,PM2.5
2023-10-17,Bidar,1.0,Satisfactory,97,PM2.5
2023-10-18,Bidar,1.0,Satisfactory,96,PM2.5
2023-10-19,Bidar,1.0,Moderate,119,PM2.5
2023-10-27,Bidar,1.0,Satisfactory,80,PM2.5
2023-10-28,Bidar,1.0,Satisfactory,72,PM2.5
2023-10-29,Bidar,1.0,Satisfactory,90,PM2.5
2023-10-30,Bidar,1.0,Satisfactory,93,PM2.5
2023-10-31,Bidar,1.0,Moderate,111,PM2.5
2023-11-03,Bidar,1.0,Moderate,184,PM2.5
2023-11-04,Bidar,1.0,Moderate,162,PM2.5
2023-11-05,Bidar,1.0,Poor,212,PM2.5
2023-11-06,Bidar,1.0,Moderate,147,PM2.5
2023-11-07,Bidar,1.0,Moderate,105,PM10
2023-11-08,Bidar,1.0,Satisfactory,94,PM10
2023-11-09,Bidar,1.0,Moderate,103,PM10
2023-11-10,Bidar,1.0,Moderate,140,PM2.5
2023-11-11,Bidar,1.0,Moderate,147,PM2.5
2023-11-17,Bidar,1.0,Poor,259,PM2.5
2023-11-18,Bidar,1.0,Moderate,163,PM2.5
2023-11-19,Bidar,1.0,Moderate,146,PM2.5
2023-11-20,Bidar,1.0,Moderate,106,PM2.5
2023-11-21,Bidar,1.0,Moderate,122,PM2.5
2023-11-22,Bidar,1.0,Moderate,125,PM2.5
2023-11-23,Bidar,1.0,Satisfactory,89,PM10
2023-11-24,Bidar,1.0,Satisfactory,64,PM10
2023-11-28,Bidar,1.0,Satisfactory,87,PM2.5
2023-11-29,Bidar,1.0,Satisfactory,72,PM10
2023-11-30,Bidar,1.0,Satisfactory,73,PM10
2023-12-01,Bidar,1.0,Satisfactory,77,PM10
2023-12-03,Bidar,1.0,Moderate,103,PM2.5
2023-12-04,Bidar,1.0,Satisfactory,88,PM10
2023-12-05,Bidar,1.0,Satisfactory,93,PM2.5
2023-12-06,Bidar,1.0,Satisfactory,91,PM10
2023-12-07,Bidar,1.0,Satisfactory,83,PM10
2023-12-08,Bidar,1.0,Satisfactory,72,PM10
2023-12-09,Bidar,1.0,Satisfactory,89,PM10
2023-12-10,Bidar,1.0,Satisfactory,92,PM10
2023-12-11,Bidar,1.0,Satisfactory,95,PM10
2023-12-12,Bidar,1.0,Satisfactory,92,PM10
2023-12-13,Bidar,1.0,Satisfactory,95,PM10
2023-12-14,Bidar,1.0,Moderate,103,PM2.5
2023-12-15,Bidar,1.0,Moderate,102,PM2.5
2023-12-16,Bidar,1.0,Moderate,155,PM2.5
2023-12-17,Bidar,1.0,Poor,209,PM2.5
2023-12-18,Bidar,1.0,Poor,227,PM2.5
2023-12-19,Bidar,1.0,Moderate,121,PM2.5
2023-12-20,Bidar,1.0,Moderate,161,PM2.5
2023-12-21,Bidar,1.0,Moderate,150,PM2.5
2023-12-22,Bidar,1.0,Moderate,176,PM2.5
2023-12-23,Bidar,1.0,Moderate,172,PM2.5
2023-12-30,Bidar,1.0,Moderate,121,PM2.5
2023-12-31,Bidar,1.0,Moderate,131,PM2.5
